STARLINK-1449, 45666

Orbit data source: Space-Track

STARLINK-1449, 45666 is a payload satellite owned by SpaceX/Seattle (US) in LEO that was launched on Thu, 04 Jun 2020 UTC via an FALCON 9 launch vehicle from the Air Force Eastern Test Range (AFETR). Payloads include a variety of satellites, spacecraft, and rockets equipped with specific instruments for various scientific and technological missions. These include communications satellites like Starlink; space stations such as the ISS; scientific satellites like the Hubble; Earth observation satellites from companies like Planet Labs, Umbra, and HawkEye 360; GPS; miniature CubeSats for education and research; and military/defense satellites.

Loading next visibility...
STARLINK-1449 details
Identifier
45666, 2020-035K
Orbit
LEO
Last TLE update19 hours ago
Origin
Flag of USSpaceX/Seattle (US)
ManufacturerSpaceX/Seattle
MissionPartially operational Commercial Communications
Bus & MotorSTARLINK, Unknown motor
Mass260 kg wet, ~248 kg dry
Launch date (UTC)
2020-06-04 (5 years ago)
Launch vehicle
FALCON 9
Launch site
Air Force Eastern Test Range (AFETR)
Object type
Payload
Rocket body
Debris
Shape & HBRBox + 1 Pan, 8.86 m
Radar Cross Section13.562 m², Large (>1 m²)

Expand to show TLE details & history

TLE from 19 hours ago
0 STARLINK-1449
1 45666U 20035K   24360.97217450  .00043612  00000-0  89681-3 0  9998
2 45666  53.0361 193.4200 0006896  86.9508 273.2287 15.45540694253207
Epoch: 2024-12-25T23:19Z
Definitive object data (Epoch: 2024-12-25T23:19:55.876Z)
Latitude-0.00002°
Longitude108.47891°
Altitude430.421 km
Speed7.655 km/s
True Right ascension12h 53m 40s
True Declination0° 00' 00"
Sunlit
Object was in daylight at TLE epoch
Visualization TLE readout
Latitude37.49635°
Longitude-110.37579°
Altitude429.104 km
Speed7.661 km/s
Apparent Right ascension01h 48m 35s
Apparent Declination0° 31' 26"
Sunlit
Object is in daylight
Visualization observer readout
Local Sidereal Time17:53:32
Azimuth70.192° E
Elevation-21.294°
Doppler factor1
Orbital elements
Apogee altitude434.763 km
Perigee altitude425.373 km
Semi-major axis6,808.205 km
Eccentricity0.0006896
Inclination53.0361°
RAAN193.42°
Arg. of periapsis86.9508°
True anomaly273.1498°
Mean anomaly273.2287°
Eccentric anomaly273.18925°
Mean motion3.86362 °/min
BSTAR0.00089681
Orbital period93.18 mins
Loading maneuver chart data...

STARLINK-1449 Visibility forecast

Observer location: undefined°, undefined

Span
Click to sort rows by Start time (UTC) header in descending order
Start Az.
Max El. time (UTC)
Max El. Az.
Max El.
End time (UTC)
End Az.
5 mins2024-12-26 21:31:01.811Z332.827° NNW2024-12-26 21:34:01.811Z41.309° NE22.888°2024-12-26 21:36:01.811Z82.684° E
4 mins2024-12-26 23:09:01.811Z279.165° WNW2024-12-26 23:11:01.811Z206.485° SW30.486°2024-12-26 23:13:01.811Z162.022° S
4 mins2024-12-27 15:54:01.811Z259.174° W2024-12-27 15:56:01.811Z353.471° N36.311°2024-12-27 15:58:01.811Z37.196° NE
|